THAICOM 4

Last updated on Sat Apr 13 2024 01:02:37 GMT+0100 (British Summer Time)

1 28786U 05028A 24103.55813491 -.00000371 00000+0 00000+0 0 9992 2 28786 0.0171 231.8604 0002081 143.6263 146.1776 1.00271797 44275
UTC large
Height (km)
Speed (km/s)
/
Latitude / Longitude
Inclination (degrees)
Orbital Period (minutes)
Azimuth
Elevation
Range (km)
Doppler Factor

Next 0 passes for location: London (51.5072 / 0.1276)

Sorry there are no passes over London.